Regional Weather Roundup
Issued by NWS Boston, MA

Home | Current Version | Previous Version | Text Only | Print | Product List | Glossary On
Versions: 1 2 3 4 5 6 7 8 9 10 11 12 13 14 15 16 17 18 19 20 21 22 23 24 25 26 27 28 29 30 31 32 33 34 35 36 37 38 39 40 41 42 43 44 45 46 47 48 49 50
000
ASUS41 KBOX 200710
RWRBOX

REGIONAL WEATHER ROUNDUP
NATIONAL WEATHER SERVICE TAUNTON MA
200 AM EST MON FEB 20 2017

NOTE:  "FAIR" INDICATES FEW OR NO CLOUDS BELOW 12,000 FEET WITH NO
SIGNIFICANT WEATHER AND/OR OBSTRUCTIONS TO VISIBILITY.

MAZALL-200800-
EASTERN MASSACHUSETTS

CITY           SKY/WX    TMP DP  RH WIND       PRES   REMARKS
BOSTON         MOCLDY    46  30  53 NW12      29.94R
BEVERLY        CLOUDY    45  30  55 NW8       29.92R
LAWRENCE       CLOUDY    45  29  53 NW8G18    29.94R
BEDFORD        MOCLDY    43  27  53 NW7       29.93R
BLUE HILL        N/A     42  30  62 NW9       29.91
NORWOOD        CLOUDY    43  32  65 CALM      29.94R
MARSHFIELD     CLOUDY    48  30  49 NW9G16    29.92R
PLYMOUTH       CLOUDY    37  30  75 CALM      29.93R
TAUNTON        CLOUDY    33  30  88 CALM      29.92R
NEW BEDFORD    CLEAR     35  28  75 CALM      29.92R
$$

MAZALL-200800-
CAPE COD AND THE ISLANDS

CITY           SKY/WX    TMP DP  RH WIND       PRES   REMARKS
FALMOUTH       CLEAR     37  30  75 MISG      29.93R
HYANNIS        CLEAR     43  32  65 NW6       29.90R
CHATHAM        CLEAR     38  32  79 CALM      29.91S
PROVINCETOWN   CLOUDY    44  34  67 NW10      29.92R
NANTUCKET      CLEAR     41  31  67 N8        29.91R
MARTHAS VNYRD  CLEAR     41  31  67 NW6       29.93R
$$

MAZALL-200800-
CENTRAL AND WESTERN MASSACHUSETTS

CITY           SKY/WX    TMP DP  RH WIND       PRES   REMARKS
WORCESTER      PTCLDY    39  27  62 NW8       29.93R
FITCHBURG      PTCLDY    45  29  53 NW6       29.95R
ORANGE         PTCLDY    31  26  82 CALM      29.95R
SPRINGFIELD    CLEAR     43  28  55 N8        29.95R
WESTFIELD      CLEAR     33  30  88 CALM      29.96S
NORTH ADAMS    PTCLDY    40  27  59 W9        29.97R
PITTSFIELD     CLEAR     34  28  79 SW5       29.95R WCI  30
$$

RIZALL-200800-
RHODE ISLAND

CITY           SKY/WX    TMP DP  RH WIND       PRES   REMARKS
PROVIDENCE     CLOUDY    44  30  57 W6        29.94R
NEWPORT        CLEAR     43  32  65 N7        29.94R
BLOCK ISLAND   CLEAR     45  33  63 NW9G17    29.95R
SMITHFIELD     CLOUDY    43  31  62 NW6       29.94R
WESTERLY       CLEAR     46  29  51 VRB3      29.96R
$$

CTZALL-200800-
CONNECTICUT

CITY           SKY/WX    TMP DP  RH WIND       PRES   REMARKS
BRADLEY INTL   CLEAR     39  31  72 W6        29.97R
HARTFORD       CLEAR     43  31  62 W6        29.97S
BRIDGEPORT     CLEAR     45  31  58 NW5       30.00R
DANBURY        CLEAR     28  25  88 CALM      30.00R
GROTON         CLEAR     44  31  60 NW8       29.96R
NEW HAVEN      CLEAR     44  32  62 NW5       29.98S
CHESTER        FAIR      45  32  61 NW6       29.97R
MERIDEN        CLEAR     33  28  81 CALM      29.99R
WILLIMANTIC    PTCLDY    41  31  67 W3        29.97R
OXFORD         CLEAR     43  28  56 NW5       29.99S
$$

MEZ002-015-021-024-NHZ003-005-008-011-012-014-VTZ005-008-200800-
NORTHERN NEW ENGLAND

CITY           SKY/WX    TMP DP  RH WIND       PRES   REMARKS
PORTLAND ME    CLOUDY    39  28  64 N10G16    29.93R
BANGOR ME      FLURRIES  34  26  72 N14       29.91R WCI  25
CONCORD NH     CLOUDY    41  27  57 NW10G22   29.95R
MANCHESTER NH  CLOUDY    42  28  57 NW7       29.93R
NASHUA NH      CLOUDY    42  30  62 NW7       29.95R
PORTSMOUTH NH  PTCLDY    43  26  52 NW10G22   29.92R
JAFFREY NH     CLEAR     36  28  73 CALM      29.93R
KEENE NH       PTCLDY    40  29  64 VRB3      29.95R
BURLINGTON VT  CLOUDY    36  26  67 N14       30.06R WCI  27
MT. WASHINGTON FOG       10  10 100 NW60        N/A  VSB 0   WCI -18
$$

NYZ052-076-200800-
EASTERN NEW YORK

CITY           SKY/WX    TMP DP  RH WIND       PRES   REMARKS
ALBANY         PTCLDY    40  30  67 NW8       30.02R
NEW YORK CITY  PTCLDY    50  33  52 NW14      30.01R
$$

ANZALL-200800-
MARINE OBSERVATIONS

STATION/POSITION TIME  TEMP    WIND        PRES    VSBY  WAVE
                       AIR SEA DIR/SP/G                  HT/PER
                 (UTC) (F)     (DEG/KT/KT) (MB)    (MI)  (FT/S)
BOSTON BUOY      0550   46 42  330/ 12/ 14 1011.6          1/ 9
BUZZARDS BAY     0600   46     310/ 16/ 17 1013.5R
NANTUCKET SOUND  0550   42 38  300/  6/  8 1012.6          1
MASS BAY-STELLWA 0604   45 40  330/ 14/ 16 1011.8R         1/ 6
ISLE OF SHOALS   0600   46     300/ 15/ 17 1012.1R
S OF BLOCK IS    0655      43                N/A           4/ 7
$$

......................KEY.........................
  SKY/WX - SKY CONDITION/PRESENT WEATHER
  TMP    - TEMPERATURE IN FAHRENHEIT
  DWPT   - DEWPOINT IN FAHRENHEIT
  RH     - RELATIVE HUMIDITY IN PERCENT
  WIND   - DIRECTION AND SPEED IN MPH
  PRES   - MEAN SEA LEVEL PRESSURE IN INCHES OF HG
  WCI    - WIND CHILL INDEX
  VSB    - VISIBILITY IN MILES
  HX     - HEAT INDEX
  TC     - TEMPERATURE IN CELSIUS
  VRB    - VARIABLE WIND DIRECTION
  N/A    - NOT AVAILABLE



USA.gov is the U.S. government's official web portal to all federal, state and local government web resources and services.